FENGYUN 1C DEB, 30725

Orbit data source: Space-Track

FENGYUN 1C DEB, 30725 is space debris in SSO originally from a launch on Mon, 10 May 1999 UTC launched from the Taiyaun Space Center, China (TSC). Fengyun 1C debris stems from the Chinese weather satellite Fengyun-1C, which was intentionally destroyed by a Chinese anti-satellite missile in 2007. This event dramatically increased the amount of space debris, with thousands of trackable fragments posing hazards to satellites and human spaceflight. The Fengyun 1C debris cloud has become a focal point in discussions about space sustainability and the need for international regulations to prevent the creation of new debris.

Loading next visibility...
Identifier
30725, 1999-025ASK
Orbit
SSO
Country
Flag of CNCN / PRC
Related business
Manufacturer
Unknown
Mission
Spacecraft
Bus & Motor
Unknown
Mass
Unknown
Launch date (UTC)
1999-05-10 (27 years ago)
Launch vehicle
Unknown
Launch site
Taiyaun Space Center, China (TSC)
Object type
Payload
Rocket body
Debris
Shape & HBR
Unknown shape, 0.1 m
Radar Cross Section
Small (<0.1 m²)

Expand to show TLE details & history
Last TLE update: 23 hours ago

TLE from 23 hours ago
0 FENGYUN 1C DEB
1 30725U 99025ASK 26106.19382847  .00001374  00000-0  68271-3 0  9991
2 30725  98.9946 181.4113 0087218  38.3968 347.1411 14.16827886981107
Epoch: 2026-04-16T04:39Z
TLE epoch observation values (Epoch: 2026-04-16T04:39:06.779Z)
Latitude
25.01036°
Longitude
-96.92409°
Altitude
777.786 km
Speed
7.499 km/s
True Right ascension
11h 48m 47s
True Declination
24° 52' 45"
Sunlit
Object was in full shadow at epoch
Visualization orbit readout
Latitude
Unknown
Longitude
Unknown
Altitude
Unknown
Speed
Unknown
Apparent Right ascension
Unknown
Apparent Declination
Unknown
Sunlit
N/A
Visualization observer readout
Local Sidereal Time
10:01:26
Azimuth
Unknown
Elevation
Unknown
Doppler factor
Unknown
Orbital elements
Apogee altitude
896.174 km
Perigee altitude
770.38 km
Semi-major axis
7,211.414 km
Eccentricity
0.00872
Inclination
98.9946°
RAAN
181.4113°
Arg. of periapsis
38.3968°
True anomaly
346.91628°
Mean anomaly
347.1411°
Eccentric anomaly
347.02893°
Mean motion
3.54415 °/min
Orbital period
101.58 mins
BSTAR
0.00068271
Loading maneuver chart data...
Computing Atmospheric mass density...
Loading historical data...
Loading historical data...
Loading historical data...
Loading historical data...
Loading historical data...
Loading historical data...
Loading historical data...

Documentation

Showing up to 5 results
|